Location: Anciles
(42.5833°N, 0.5167°E)
Time: 09:24:41
(UTC+00:00)

NOAA 12 - Pass Details

Date: 10 December 2019
Orbit: 795 x 815 km, 98.5° (Epoch: 21 January)

Event Time Altitude Azimuth Distance (km) Brightness Sun altitude
Rises 17:12:40 0° 149° (SSE) 3,322 7.2 -8.7°
Reaches altitude 10° 17:15:04 10° 144° (SE) 2,393 6.4 -9.1°
Maximum altitude 17:20:08 49° 70° (ENE) 1,038 4.3 -10.0°
Drops below altitude 10° 17:25:13 10° 357° (N) 2,396 6.4 -10.9°
Sets 17:27:37 0° 352° (N) 3,328 7.2 -11.3°
